Time,TemperatureF,DewpointF,PressureIn,WindDirection,WindDirectionDegrees,WindSpeedMPH,WindSpeedGustMPH,Humidity,HourlyPrecipIn,Conditions,Clouds,dailyrainin,SoftwareType,DateUTC
2013-08-16 00:23:00,67.0,67.0,29.76,NE,55,1.0,4.0,100,0.00,,,0.00,,2013-08-16 04:23:00,
2013-08-16 00:54:00,67.0,67.0,29.76,ENE,77,0.0,3.0,100,0.00,,,0.00,,2013-08-16 04:54:00,
2013-08-16 01:22:00,67.0,67.0,29.75,NE,56,0.0,4.0,100,0.00,,,0.00,,2013-08-16 05:22:00,
2013-08-16 03:00:00,66.0,66.0,29.72,East,86,3.0,3.0,100,0.00,,,0.00,,2013-08-16 07:00:00,
2013-08-16 03:21:00,66.0,66.0,29.72,ENE,60,2.0,4.0,100,0.00,,,0.00,,2013-08-16 07:21:00,
2013-08-16 03:52:00,66.0,66.0,29.72,East,88,0.0,4.0,100,0.00,,,0.00,,2013-08-16 07:52:00,
2013-08-16 04:21:00,66.0,66.0,29.72,ESE,115,1.0,1.0,100,0.00,,,0.00,,2013-08-16 08:21:00,
2013-08-16 04:52:00,66.0,66.0,29.72,ENE,61,0.0,3.0,100,0.00,,,0.00,,2013-08-16 08:52:00,
2013-08-16 05:21:00,66.0,66.0,29.72,ENE,61,3.0,3.0,100,0.00,,,0.00,,2013-08-16 09:21:00,
2013-08-16 05:53:00,66.0,66.0,29.72,NE,37,3.0,4.0,100,0.00,,,0.00,,2013-08-16 09:53:00,
2013-08-16 06:23:00,66.0,66.0,29.73,NE,47,1.0,5.0,100,0.00,,,0.00,,2013-08-16 10:23:00,
2013-08-16 06:52:00,65.0,65.0,29.72,ENE,63,1.0,6.0,100,0.00,,,0.00,,2013-08-16 10:52:00,
2013-08-16 07:21:00,65.0,65.0,29.75,NE,53,1.0,3.0,100,0.00,,,0.00,,2013-08-16 11:21:00,
2013-08-16 07:52:00,64.0,64.0,29.74,ENE,60,3.0,9.0,100,0.00,,,0.00,,2013-08-16 11:52:00,
2013-08-16 08:21:00,64.0,64.0,29.75,East,96,6.0,7.0,100,0.00,,,0.00,,2013-08-16 12:21:00,
2013-08-16 08:52:00,64.0,64.0,29.75,ENE,72,6.0,9.0,100,0.00,,,0.00,,2013-08-16 12:52:00,
2013-08-16 09:22:00,64.0,64.0,29.76,ENE,71,2.0,7.0,100,0.00,,,0.00,,2013-08-16 13:22:00,
2013-08-16 09:53:00,63.0,63.0,29.75,East,82,5.0,9.0,100,0.00,,,0.00,,2013-08-16 13:53:00,
2013-08-16 10:22:00,63.0,63.0,29.76,ESE,115,3.0,11.0,100,0.00,,,0.00,,2013-08-16 14:22:00,
2013-08-16 10:52:00,63.0,63.0,29.76,East,85,6.0,9.0,100,0.00,,,0.00,,2013-08-16 14:52:00,
2013-08-16 11:22:00,64.0,64.0,29.75,ENE,76,3.0,10.0,100,0.00,,,0.00,,2013-08-16 15:22:00,
2013-08-16 11:56:00,64.0,64.0,29.75,East,82,5.0,10.0,100,0.00,,,0.00,,2013-08-16 15:56:00,
2013-08-16 12:23:00,64.0,64.0,29.75,NE,37,1.0,11.0,100,0.00,,,0.00,,2013-08-16 16:23:00,
2013-08-16 12:57:00,64.0,64.0,29.77,ENE,64,9.0,9.0,100,0.00,,,0.00,,2013-08-16 16:57:00,
2013-08-16 13:28:00,65.0,65.0,29.77,ESE,107,1.0,8.0,100,0.00,,,0.00,,2013-08-16 17:28:00,
2013-08-16 14:00:00,64.0,64.0,29.75,SE,126,4.0,8.0,100,0.00,,,0.00,,2013-08-16 18:00:00,
2013-08-16 14:28:00,65.0,65.0,29.75,SE,144,5.0,10.0,100,0.00,,,0.00,,2013-08-16 18:28:00,
2013-08-16 14:50:00,-999.0,-99.9,29.74,ESE,122,6.0,6.0,100,0.00,,,0.00,,2013-08-16 18:50:00,
2013-08-16 15:25:00,65.0,65.0,29.74,ENE,68,1.0,11.0,100,0.00,,,0.00,,2013-08-16 19:25:00,
2013-08-16 15:55:00,64.0,64.0,29.73,East,96,4.0,12.0,100,0.00,,,0.00,,2013-08-16 19:55:00,
2013-08-16 16:23:00,64.0,64.0,29.73,NE,35,3.0,9.0,100,0.00,,,0.00,,2013-08-16 20:23:00,
2013-08-16 16:52:00,64.0,64.0,29.72,ENE,70,3.0,9.0,100,0.00,,,0.00,,2013-08-16 20:52:00,
2013-08-16 17:25:00,64.0,64.0,29.74,ENE,65,4.0,10.0,100,0.00,,,0.00,,2013-08-16 21:25:00,
2013-08-16 17:40:00,-999.0,-99.9,29.74,ENE,66,2.0,9.0,-999,0.00,,,0.00,,2013-08-16 21:40:00,
2013-08-16 17:54:00,63.0,63.0,29.74,East,81,3.0,12.0,100,0.00,,,0.00,,2013-08-16 21:54:00,
2013-08-16 18:24:00,64.0,64.0,29.74,SE,126,1.0,10.0,100,0.00,,,0.00,,2013-08-16 22:24:00,
2013-08-16 18:52:00,64.0,64.0,29.73,East,83,5.0,10.0,100,0.00,,,0.00,,2013-08-16 22:52:00,
2013-08-16 19:23:00,64.0,64.0,29.73,East,80,6.0,8.0,100,0.00,,,0.00,,2013-08-16 23:23:00,
2013-08-16 19:52:00,64.0,64.0,29.75,ENE,76,0.0,8.0,100,0.00,,,0.00,,2013-08-16 23:52:00,
2013-08-16 20:21:00,64.0,64.0,29.75,East,95,2.0,7.0,100,0.00,,,0.00,,2013-08-17 00:21:00,
2013-08-16 20:52:00,64.0,64.0,29.75,ENE,78,1.0,6.0,100,0.00,,,0.00,,2013-08-17 00:52:00,
2013-08-16 21:21:00,64.0,64.0,29.77,NE,47,1.0,6.0,100,0.00,,,0.00,,2013-08-17 01:21:00,
2013-08-16 21:52:00,64.0,64.0,29.78,ENE,76,5.0,6.0,100,0.00,,,0.00,,2013-08-17 01:52:00,
2013-08-16 22:21:00,64.0,64.0,29.79,East,82,1.0,6.0,100,0.00,,,0.00,,2013-08-17 02:21:00,
2013-08-16 22:52:00,64.0,64.0,29.79,ENE,67,4.0,8.0,100,0.00,,,0.00,,2013-08-17 02:52:00,
2013-08-16 23:22:00,64.0,64.0,29.79,NE,47,1.0,6.0,100,0.00,,,0.00,,2013-08-17 03:22:00,
2013-08-16 23:53:00,64.0,64.0,29.78,ENE,78,4.0,6.0,100,0.00,,,0.00,,2013-08-17 03:53:00,